• Join FlightAware (Why Join?)
  • Login
  • US Flag 
11:49PM EST


 

Airport Tracker/Info


-or-


 

Live Flight TrackerFlight Track Log ✈ N501JF ✈ 14-Jun-2013 ✈ KJZI - KRYY

Flight Track Log - Related Links

Times and Time Zones

All times are in EDT time to prevent confusion due to time zone crossing. See the N501JF flight status page for this flight to view local times or setup timezone preferences in your user account.

Time Position Orientation Groundspeed Altitude Reporting Facility
EDT Latitude Longitude Course Direction KTS MPH feet Rate Location/Type
02:56PM 32.6869 -80.0986 283° West 189 217 7,000  Level Jacksonville Center
02:57PM 32.7069 -80.1572 292° West 232 267 8,000 950 Climbing Jacksonville Center
02:58PM 32.7561 -80.2100 318° Northwest 265 305 8,900 1,050 Climbing Jacksonville Center
02:59PM 32.8655 -80.3350 310° West  Level FlightAware Approximate
02:59PM 32.8072 -80.2653 318° Northwest 265 305 10,100  Level Jacksonville Center
03:00PM 32.9072 -80.4048 292° West  Level FlightAware Approximate
03:00PM 32.8522 -80.3208 314° West 245 282 11,800  Level Jacksonville Center
03:02PM 32.9236 -80.4450 304° West 235 270 14,200 1,167 Climbing Jacksonville Center
03:03PM 32.9439 -80.5236 287° West 235 270 15,300 1,100 Climbing Jacksonville Center
03:04PM 32.9350 -80.6056 263° West 246 283 16,400 1,250 Climbing Jacksonville Center
03:05PM 32.9489 -80.6869 282° West 252 290 17,800 1,250 Climbing Jacksonville Center
03:06PM 32.9564 -80.7636 277° West 252 290 18,900 1,050 Climbing Jacksonville Center
03:07PM 32.9725 -80.8422 284° West 252 290 19,900 1,000 Climbing Jacksonville Center
03:08PM 32.9861 -80.9214 282° West 252 290 20,900 900 Climbing Jacksonville Center
03:09PM 32.9958 -81.0003 278° West 252 290 21,700 550 Climbing Jacksonville Center
03:10PM 33.0094 -81.0842 281° West 258 297 22,000 100 Climbing Jacksonville Center
03:11PM 33.0275 -81.1781 283° West 272 313 21,900 -50 Descending Jacksonville Center
03:12PM 33.0392 -81.2719 278° West 286 329 21,900  Level Jacksonville Center
03:13PM 33.0553 -81.3881 279° West 292 336 21,900  Level Jacksonville Center
03:14PM 33.0708 -81.4822 281° West 292 336 21,900  Level Jacksonville Center
03:16PM 33.1064 -81.7078 281° West 300 345 21,900  Level Atlanta Center
03:17PM 33.1206 -81.8042 280° West 300 345 21,900  Level Atlanta Center
03:18PM 33.1347 -81.9006 280° West 300 345 21,900  Level Atlanta Center
03:19PM 33.1511 -81.9969 282° West 294 338 21,900  Level Atlanta Center
03:20PM 33.1631 -82.0958 278° West 294 338 21,900  Level Atlanta Center
03:21PM 33.1772 -82.1897 280° West 294 338 21,900  Level Atlanta Center
03:22PM 33.1931 -82.2889 281° West 294 338 21,900  Level Atlanta Center
03:23PM 33.2069 -82.3853 280° West 294 338 21,900  Level Atlanta Center
03:24PM 33.2208 -82.4844 280° West 294 338 21,900  Level Atlanta Center
03:25PM 33.2344 -82.5811 280° West 299 344 21,900  Level Atlanta Center
03:26PM 33.2483 -82.6825 279° West 299 344 21,900  Level Atlanta Center
03:27PM 33.2617 -82.7767 280° West 299 344 21,900  Level Atlanta Center
03:28PM 33.2753 -82.8736 280° West 299 344 21,900 -350 Level Atlanta Center
03:29PM 33.2864 -82.9678 278° West 299 344 21,200 -1,350 Descending Atlanta Center
03:30PM 33.3042 -83.0744 281° West 323 372 19,200 -1,800 Descending Atlanta Center
03:31PM 33.3194 -83.1786 280° West 323 372 17,600 -1,650 Descending Atlanta Center
03:32PM 33.3328 -83.2831 279° West 323 372 15,900 -1,650 Descending Atlanta Center
03:33PM 33.3500 -83.3947 280° West 323 372 14,300 -1,500 Descending Atlanta Center
03:34PM 33.3631 -83.4917 279° West 312 359 12,900 -1,500 Descending Atlanta Center
03:35PM 33.3758 -83.5836 279° West 301 346 11,300 -950 Descending Atlanta Center
03:36PM 33.3972 -83.6706 286° West 288 331 11,000 -550 Descending Atlanta Center
03:37PM 33.4558 -83.7300 320° Northwest 268 308 10,200 -1,000 Descending Atlanta Center
03:38PM 33.5183 -83.7797 326° Northwest 273 314 9,000 -1,200 Descending Atlanta Center
03:39PM 33.5917 -83.8094 341° North 278 320 7,800 -1,250 Descending Atlanta Center
03:40PM 33.6606 -83.8267 348° North 263 303 6,500 -950 Descending Atlanta Center
03:41PM 33.7294 -83.8439 348° North 258 297 5,900 -250 Descending Atlanta Center
03:42PM 33.8003 -83.8564 352° North 258 297 6,000 50 Climbing Atlanta Center
03:43PM 33.8589 -83.8986 329° Northwest 258 297 6,000 -168 Level Atlanta Center
03:44PM 33.8833 -83.9667 293° West 273 314 5,700 -1,009 Descending Atlanta TRACON
03:45PM 33.9167 -84.0500 296° West 277 319 4,100 -810 Descending Atlanta TRACON
03:46PM 33.9500 -84.1333 296° West 244 281 4,000 -50 Descending Atlanta TRACON
03:47PM 33.9667 -84.2000 287° West 228 262 4,000 -50 Level Atlanta TRACON
03:48PM 34.0000 -84.2667 301° West 212 244 3,900 -298 Descending Atlanta TRACON
03:49PM 34.0000 -84.3500 270° West 225 259 3,400 -400 Descending Atlanta TRACON
03:50PM 34.0167 -84.4167 287° West 224 258 3,100 -100 Descending Atlanta TRACON
03:51PM 34.0167 -84.4833 270° West 203 234 3,200 -400 Climbing Atlanta TRACON
03:52PM 34.0167 -84.5333 270° West 119 137 2,300 -900 Descending Atlanta TRACON